Location: Rife
(54.1814°N, 111.0275°W)
Time: 05:07:02
(UTC+00:00)

ISS - Visible Passes

Search period start: 28 November 2021 00:00
Search period end: 08 December 2021 00:00
Orbit: 417 x 423 km, 51.6° (Epoch: 28 November)

Date Brightness Start Highest point End Pass type
(mag) Time Alt. Az. Time Alt. Az. Time Alt. Az.
28 Nov -3.5 01:23:47 10° WSW 01:27:07 55° S 01:27:25 53° SSE visible
29 Nov -3.2 00:36:41 10° WSW 00:40:00 51° S 00:42:07 20° ESE visible
29 Nov -1.6 02:13:19 10° W 02:15:06 27° WSW 02:15:06 27° WSW visible
29 Nov -2.9 23:49:37 10° WSW 23:52:53 45° SSE 23:56:11 10° E visible
30 Nov -3.3 01:26:11 10° W 01:29:30 53° S 01:29:49 51° SSE visible
01 Dec -3.3 00:39:01 10° W 00:42:22 56° S 00:44:32 20° ESE visible
01 Dec -1.4 02:15:47 10° W 02:17:31 24° WSW 02:17:31 24° WSW visible
01 Dec -3.1 23:51:52 10° WSW 23:55:12 55° S 23:58:33 10° E visible
02 Dec -2.8 01:28:34 10° W 01:31:48 41° SSW 01:32:18 38° S visible
03 Dec -2.9 00:41:21 10° W 00:44:39 48° SSW 00:47:08 16° ESE visible
03 Dec -1.1 02:18:25 10° W 02:20:07 18° SW 02:20:07 18° SW visible
03 Dec -3.0 23:54:08 10° W 23:57:28 53° S 00:00:48 10° ESE visible
04 Dec -1.9 01:31:02 10° W 01:33:55 26° SSW 01:35:03 21° S visible
05 Dec -2.1 00:43:42 10° W 00:46:48 33° SSW 00:49:53 10° SE visible
05 Dec -0.6 02:22:08 10° SW 02:22:53 11° SW 02:23:07 10° SW visible
05 Dec -2.4 23:56:25 10° W 23:59:38 40° SSW 00:02:51 10° SE visible
06 Dec -0.9 01:33:52 10° WSW 01:35:52 15° SW 01:37:51 10° S visible
07 Dec -1.1 00:46:14 10° W 00:48:46 20° SSW 00:51:19 10° SSE visible
